sat.trackr.live / text

‹ back to catalog

ONEWEB-0157

NORAD 48055 · 2021-025P

PAYLOAD ACTIVE UNKNOWN

§ Identity

Operator
Country
UK
Launch date
2021-03-25
Launch site
VOSTO
Launch vehicle
Mass (kg)
RCS (m²)

Purposes: comms

External: N2YO · Heavens-Above · Gunter

§ Orbital elements

Epoch: 2026-05-24T23:53:49.625664Z

Period
109.63 min
Inclination
87.8950°
Eccentricity
0.0001598
Mean motion
13.13469153 rev/d
Perigee alt
1,208.6 km
Apogee alt
1,211.0 km
Semi-major
7,587.9 km
B*
-5.0413e-4
RAAN
324.8417°
Arg perigee
103.6019°
Mean anomaly
256.5288°
Rev number
25,052

§ Raw data

ONEWEB-01571 48055U 21025P   26144.99571326 -.00000171  00000+0 -50413-3 0  99972 48055  87.8950 324.8417 0001598 103.6019 256.5288 13.13469153250529

JSON: /api/v1/satellites/48055 · /tle

For live sub-satellite position, see the globe view (requires WebGL).

§ Visibility from observer

Set your observer location to see the next 7 days of passes ≥ 10°. The values pass through the URL so the page stays shareable.

No JS? Fill the form by hand. The geolocation button needs JavaScript.